| time (UTC) | temp F | wind direction | speed knots | gust knots | rain 1hr in | rain 24hr in | rain mn in | humidity % | barometer mb |
| 20260505113448 | 82 | 129 | 0.9 | 1.7 | 0.00 | 0.00 | 0.00 | 78 | 1018.8 |
| 20260505112944 | 81 | 139 | 1.7 | 2.6 | 0.00 | 0.00 | 0.00 | 79 | 1018.8 |
| 20260505112441 | 81 | 226 | 0.9 | 1.7 | 0.00 | 0.00 | 0.00 | 81 | 1018.8 |
| 20260505111938 | 80 | 174 | 0.9 | 1.7 | 0.00 | 0.00 | 0.00 | 81 | 1018.7 |
| 20260505111432 | 80 | 210 | 0.9 | 1.7 | 0.00 | 0.00 | 0.00 | 81 | 1018.4 |
| 20260505110929 | 81 | 222 | 1.7 | 2.6 | 0.00 | 0.00 | 0.00 | 81 | 1018.7 |
| 20260505110425 | 81 | 224 | 0.9 | 1.7 | 0.00 | 0.00 | 0.00 | 81 | 1018.4 |
| 20260505101857 | 77 | 196 | 0.0 | 0.9 | 0.00 | 0.00 | 0.00 | 88 | 1018.1 |
| 20260505101357 | 77 | 144 | 0.0 | 0.9 | 0.00 | 0.00 | 0.00 | 88 | 1018.1 |
| 20260505100853 | 77 | 202 | 0.0 | 1.7 | 0.00 | 0.00 | 0.00 | 88 | 1018.0 |
| 20260505100349 | 77 | 170 | 0.9 | 0.9 | 0.00 | 0.00 | 0.00 | 88 | 1018.0 |
| 20260505095845 | 77 | 144 | 0.9 | 1.7 | 0.00 | 0.00 | 0.00 | 87 | 1017.8 |
| 20260505095343 | 77 | 164 | 0.9 | 0.9 | 0.00 | 0.00 | 0.00 | 87 | 1017.9 |
| 20260505094839 | 77 | 143 | 0.9 | 0.9 | 0.00 | 0.00 | 0.00 | 87 | 1017.9 |
| 20260505094336 | 77 | 215 | 0.0 | 1.7 | 0.00 | 0.00 | 0.00 | 87 | 1017.8 |
| 20260505093831 | 77 | 201 | 0.0 | 0.9 | 0.00 | 0.00 | 0.00 | 86 | 1017.9 |
| 20260505093329 | 77 | 120 | 0.0 | 0.9 | 0.00 | 0.00 | 0.00 | 86 | 1017.8 |
| 20260505092826 | 77 | 183 | 0.0 | 0.9 | 0.00 | 0.00 | 0.00 | 86 | 1017.9 |
| 20260505092325 | 77 | 229 | 0.0 | 0.9 | 0.00 | 0.00 | 0.00 | 86 | 1017.9 |
| 20260505091821 | 77 | 212 | 0.0 | 0.9 | 0.00 | 0.00 | 0.00 | 86 | 1017.8 |
| 20260505091319 | 77 | 219 | 0.0 | 0.9 | 0.00 | 0.00 | 0.00 | 86 | 1017.8 |
| 20260505090817 | 77 | 204 | 0.0 | 0.9 | 0.00 | 0.00 | 0.00 | 86 | 1017.8 |
| 20260505090315 | 77 | 220 | 0.0 | 0.9 | 0.00 | 0.00 | 0.00 | 86 | 1017.7 |
| 20260505085812 | 77 | 242 | 0.9 | 1.7 | 0.00 | 0.00 | 0.00 | 86 | 1017.8 |
| 20260505085310 | 77 | 229 | 0.9 | 0.9 | 0.00 | 0.00 | 0.00 | 86 | 1017.5 |
| 20260505084807 | 78 | 249 | 0.0 | 1.7 | 0.00 | 0.00 | 0.00 | 86 | 1017.6 |
| 20260505084306 | 78 | 226 | 0.0 | 0.9 | 0.00 | 0.00 | 0.00 | 86 | 1017.6 |
| 20260505083802 | 78 | 277 | 0.9 | 0.9 | 0.00 | 0.00 | 0.00 | 86 | 1017.6 |
| 20260505083300 | 78 | 245 | 1.7 | 1.7 | 0.00 | 0.00 | 0.00 | 86 | 1017.5 |
| 20260505082756 | 78 | 229 | 0.9 | 1.7 | 0.00 | 0.00 | 0.00 | 86 | 1017.5 |
| 20260505082253 | 78 | 232 | 1.7 | 1.7 | 0.00 | 0.00 | 0.00 | 86 | 1017.4 |
| 20260505081748 | 78 | 223 | 0.9 | 0.9 | 0.00 | 0.00 | 0.00 | 86 | 1017.2 |
| 20260505081246 | 78 | 249 | 0.9 | 1.7 | 0.00 | 0.00 | 0.00 | 86 | 1017.5 |
| 20260505080743 | 78 | 250 | 0.9 | 1.7 | 0.00 | 0.00 | 0.00 | 86 | 1017.3 |
| 20260505080238 | 78 | 203 | 0.9 | 0.9 | 0.00 | 0.00 | 0.00 | 86 | 1017.3 |
| 20260505075734 | 78 | 231 | 1.7 | 1.7 | 0.00 | 0.00 | 0.00 | 87 | 1017.0 |
| 20260505075231 | 78 | 167 | 0.0 | 0.9 | 0.00 | 0.00 | 0.00 | 87 | 1017.2 |
| 20260505074729 | 77 | 235 | 0.0 | 0.9 | 0.00 | 0.00 | 0.00 | 88 | 1017.2 |
| 20260505074226 | 77 | 308 | 0.0 | 0.0 | 0.00 | 0.00 | 0.00 | 88 | 1017.1 |
| 20260505073724 | 77 | 305 | 0.0 | 0.9 | 0.00 | 0.00 | 0.00 | 88 | 1017.4 |
| 20260505073221 | 77 | 285 | 0.9 | 0.9 | 0.00 | 0.00 | 0.00 | 88 | 1017.4 |
| 20260505072717 | 77 | 269 | 0.9 | 0.9 | 0.00 | 0.00 | 0.00 | 88 | 1017.4 |
| 20260505072213 | 77 | 76 | 0.0 | 0.0 | 0.00 | 0.00 | 0.00 | 88 | 1017.3 |
| 20260505071709 | 77 | 243 | 0.0 | 0.0 | 0.00 | 0.00 | 0.00 | 88 | 1017.4 |
| 20260505071207 | 77 | 261 | 0.0 | 0.9 | 0.00 | 0.00 | 0.00 | 88 | 1017.4 |
| 20260505070704 | 77 | 20 | 0.0 | 0.9 | 0.00 | 0.00 | 0.00 | 88 | 1017.4 |
| 20260505070200 | 77 | 335 | 0.0 | 0.0 | 0.00 | 0.00 | 0.00 | 88 | 1017.5 |
| 20260505065656 | 77 | 42 | 0.0 | 0.9 | 0.00 | 0.00 | 0.00 | 88 | 1017.4 |
| 20260505065153 | 77 | 262 | 0.9 | 0.9 | 0.00 | 0.00 | 0.00 | 88 | 1017.3 |
| 20260505064650 | 77 | 298 | 0.9 | 0.9 | 0.00 | 0.00 | 0.00 | 88 | 1017.3 |
| 20260505064148 | 77 | 254 | 0.0 | 0.0 | 0.00 | 0.00 | 0.00 | 87 | 1017.4 |
| 20260505063645 | 78 | 253 | 0.0 | 0.9 | 0.00 | 0.00 | 0.00 | 87 | 1017.3 |
| 20260505063141 | 78 | 273 | 0.9 | 0.9 | 0.00 | 0.00 | 0.00 | 86 | 1017.4 |
| 20260505062637 | 78 | 214 | 0.0 | 0.0 | 0.00 | 0.00 | 0.00 | 86 | 1017.3 |
| 20260505062135 | 78 | 63 | 0.0 | 0.0 | 0.00 | 0.00 | 0.00 | 86 | 1017.7 |
| 20260505061632 | 78 | 154 | 0.9 | 0.9 | 0.00 | 0.00 | 0.00 | 86 | 1017.5 |
| 20260505061130 | 78 | 106 | 0.0 | 0.9 | 0.00 | 0.00 | 0.00 | 86 | 1017.7 |
| 20260505060627 | 78 | 232 | 0.9 | 0.9 | 0.00 | 0.00 | 0.00 | 85 | 1017.6 |
| 20260505060124 | 78 | 97 | 0.9 | 1.7 | 0.00 | 0.00 | 0.00 | 85 | 1017.8 |
| 20260505055619 | 78 | 89 | 0.9 | 1.7 | 0.00 | 0.00 | 0.00 | 84 | 1017.8 |
| 20260505055116 | 78 | 100 | 1.7 | 1.7 | 0.00 | 0.00 | 0.00 | 83 | 1017.5 |
| 20260505054613 | 79 | 138 | 0.9 | 0.9 | 0.00 | 0.00 | 0.00 | 83 | 1017.8 |
| 20260505054112 | 79 | 79 | 0.9 | 1.7 | 0.00 | 0.00 | 0.00 | 83 | 1017.9 |
| 20260505053608 | 79 | 102 | 0.9 | 0.9 | 0.00 | 0.00 | 0.00 | 83 | 1018.2 |
| 20260505053105 | 79 | 109 | 0.9 | 0.9 | 0.00 | 0.00 | 0.00 | 82 | 1017.9 |
| 20260505052602 | 79 | 254 | 0.0 | 0.0 | 0.00 | 0.00 | 0.00 | 82 | 1017.9 |
| 20260505052100 | 79 | 236 | 0.0 | 0.9 | 0.00 | 0.00 | 0.00 | 81 | 1018.2 |
| 20260505051556 | 79 | 219 | 0.0 | 0.9 | 0.00 | 0.00 | 0.00 | 81 | 1018.3 |
| 20260505051054 | 79 | 250 | 0.0 | 0.9 | 0.00 | 0.00 | 0.00 | 81 | 1018.1 |
| 20260505050552 | 79 | 222 | 0.9 | 0.9 | 0.00 | 0.00 | 0.00 | 81 | 1018.3 |
| 20260505041520 | 80 | 129 | 0.9 | 1.7 | 0.00 | 0.00 | 0.00 | 83 | 1018.6 |
| 20260505041017 | 80 | 107 | 0.9 | 0.9 | 0.00 | 0.00 | 0.00 | 83 | 1019.0 |
| 20260505040514 | 80 | 62 | 1.7 | 1.7 | 0.00 | 0.00 | 0.00 | 82 | 1018.8 |
| 20260505040012 | 80 | 300 | 0.0 | 0.0 | 0.00 | 0.00 | 0.00 | 82 | 1018.8 |
| 20260505035507 | 80 | 284 | 0.0 | 0.0 | 0.00 | 0.00 | 0.00 | 82 | 1018.8 |
| 20260505035004 | 80 | 298 | 0.0 | 0.9 | 0.00 | 0.00 | 0.00 | 82 | 1018.9 |
| 20260505034500 | 80 | 320 | 0.0 | 0.9 | 0.00 | 0.00 | 0.00 | 82 | 1019.1 |
| 20260505033958 | 80 | 309 | 0.9 | 0.9 | 0.00 | 0.00 | 0.00 | 81 | 1019.0 |
| 20260505033454 | 80 | 304 | 0.9 | 0.9 | 0.00 | 0.00 | 0.00 | 81 | 1019.0 |
| 20260505032953 | 80 | 319 | 0.0 | 0.0 | 0.00 | 0.00 | 0.00 | 82 | 1019.1 |
| 20260505032450 | 80 | 68 | 2.6 | 2.6 | 0.00 | 0.00 | 0.00 | 82 | 1019.2 |
| 20260505031946 | 80 | 80 | 0.0 | 0.9 | 0.00 | 0.00 | 0.00 | 81 | 1019.1 |
| 20260505031443 | 80 | 275 | 0.9 | 1.7 | 0.00 | 0.00 | 0.00 | 80 | 1019.0 |
| 20260505030940 | 80 | 166 | 0.9 | 0.9 | 0.00 | 0.00 | 0.00 | 82 | 1019.0 |
| 20260505030436 | 80 | 205 | 0.0 | 0.9 | 0.00 | 0.00 | 0.00 | 82 | 1019.1 |
| 20260505025931 | 80 | 231 | 0.0 | 1.7 | 0.00 | 0.00 | 0.00 | 81 | 1019.0 |
| 20260505025429 | 80 | 161 | 0.9 | 1.7 | 0.00 | 0.00 | 0.00 | 81 | 1019.0 |
| 20260505024928 | 80 | 232 | 0.9 | 1.7 | 0.00 | 0.00 | 0.00 | 81 | 1018.9 |
| 20260505024425 | 80 | 206 | 0.9 | 1.7 | 0.00 | 0.00 | 0.00 | 81 | 1019.0 |
| 20260505023922 | 80 | 101 | 0.0 | 0.9 | 0.00 | 0.00 | 0.00 | 81 | 1019.0 |
| 20260505023419 | 80 | 103 | 0.9 | 0.9 | 0.00 | 0.00 | 0.00 | 81 | 1019.0 |
| 20260505022916 | 80 | 54 | 0.0 | 0.9 | 0.00 | 0.00 | 0.00 | 82 | 1018.9 |
| 20260505022413 | 80 | 63 | 1.7 | 1.7 | 0.00 | 0.00 | 0.00 | 81 | 1018.8 |
| 20260505021910 | 80 | 51 | 0.0 | 0.9 | 0.00 | 0.00 | 0.00 | 81 | 1018.9 |
| 20260505021407 | 80 | 67 | 0.0 | 1.7 | 0.00 | 0.00 | 0.00 | 81 | 1018.8 |
| 20260505020903 | 80 | 89 | 0.9 | 1.7 | 0.00 | 0.00 | 0.00 | 82 | 1018.8 |
| 20260505020358 | 80 | 61 | 0.9 | 1.7 | 0.00 | 0.00 | 0.00 | 82 | 1018.8 |
| 20260505015855 | 80 | 71 | 0.0 | 0.9 | 0.00 | 0.00 | 0.00 | 82 | 1018.9 |
| 20260505015352 | 80 | 64 | 0.9 | 1.7 | 0.00 | 0.00 | 0.00 | 81 | 1018.8 |
| 20260505014850 | 80 | 100 | 0.9 | 1.7 | 0.00 | 0.00 | 0.00 | 81 | 1018.7 |
| 20260505014346 | 80 | 86 | 0.9 | 2.6 | 0.00 | 0.00 | 0.00 | 81 | 1018.7 |
| 20260505013843 | 80 | 73 | 1.7 | 2.6 | 0.00 | 0.00 | 0.00 | 80 | 1018.7 |
| 20260505013340 | 80 | 95 | 1.7 | 1.7 | 0.00 | 0.00 | 0.00 | 81 | 1018.6 |
| 20260505012839 | 80 | 84 | 0.9 | 1.7 | 0.00 | 0.00 | 0.00 | 81 | 1018.6 |
| 20260505012336 | 80 | 83 | 1.7 | 1.7 | 0.00 | 0.00 | 0.00 | 80 | 1018.6 |
| 20260505011832 | 81 | 91 | 0.9 | 2.6 | 0.00 | 0.00 | 0.00 | 79 | 1018.3 |
| 20260505011329 | 81 | 74 | 1.7 | 2.6 | 0.00 | 0.00 | 0.00 | 79 | 1018.5 |
| 20260505010825 | 81 | 67 | 0.9 | 0.9 | 0.00 | 0.00 | 0.00 | 79 | 1018.3 |
| 20260505010321 | 81 | 82 | 0.9 | 2.6 | 0.00 | 0.00 | 0.00 | 78 | 1018.3 |
| 20260505005817 | 81 | 69 | 0.9 | 1.7 | 0.00 | 0.00 | 0.00 | 78 | 1018.2 |
| 20260505005314 | 82 | 100 | 0.9 | 1.7 | 0.00 | 0.00 | 0.00 | 77 | 1018.1 |
| 20260505004812 | 82 | 114 | 0.9 | 1.7 | 0.00 | 0.00 | 0.00 | 76 | 1018.2 |
| 20260505004308 | 82 | 142 | 1.7 | 2.6 | 0.00 | 0.00 | 0.00 | 76 | 1018.1 |
| 20260505003806 | 82 | 134 | 0.0 | 1.7 | 0.00 | 0.00 | 0.00 | 76 | 1017.9 |
| 20260505003303 | 82 | 152 | 0.9 | 1.7 | 0.00 | 0.00 | 0.00 | 75 | 1018.0 |
| 20260505002759 | 82 | 112 | 1.7 | 1.7 | 0.00 | 0.00 | 0.00 | 75 | 1018.1 |
| 20260505002256 | 82 | 93 | 2.6 | 3.5 | 0.00 | 0.00 | 0.00 | 75 | 1018.1 |
| 20260505001754 | 82 | 145 | 0.9 | 3.5 | 0.00 | 0.00 | 0.00 | 75 | 1017.9 |
| 20260505001251 | 82 | 80 | 2.6 | 2.6 | 0.00 | 0.00 | 0.00 | 75 | 1018.1 |
| 20260505000748 | 82 | 85 | 1.7 | 2.6 | 0.00 | 0.00 | 0.00 | 75 | 1018.1 |
| 20260505000246 | 82 | 82 | 2.6 | 2.6 | 0.00 | 0.00 | 0.00 | 75 | 1017.9 |
| 20260504235742 | 82 | 94 | 1.7 | 2.6 | 0.00 | 0.00 | 0.00 | 74 | 1017.8 |
| 20260504235238 | 82 | 103 | 0.9 | 2.6 | 0.00 | 0.00 | 0.00 | 75 | 1018.0 |
| 20260504234736 | 82 | 96 | 1.7 | 3.5 | 0.00 | 0.00 | 0.00 | 75 | 1018.1 |
| 20260504234233 | 82 | 124 | 0.9 | 1.7 | 0.00 | 0.00 | 0.00 | 75 | 1017.9 |
| 20260504233729 | 82 | 105 | 1.7 | 2.6 | 0.00 | 0.00 | 0.00 | 75 | 1017.8 |
| 20260504233225 | 82 | 108 | 2.6 | 3.5 | 0.00 | 0.00 | 0.00 | 74 | 1017.6 |
| 20260504232722 | 82 | 79 | 2.6 | 3.5 | 0.00 | 0.00 | 0.00 | 74 | 1017.6 |
| 20260504211236 | 85 | 92 | 4.3 | 7.0 | 0.00 | 0.00 | 0.00 | 69 | 1016.2 |
| 20260504210734 | 85 | 92 | 4.3 | 7.0 | 0.00 | 0.00 | 0.00 | 69 | 1016.2 |
| 20260504210231 | 85 | 237 | 4.3 | 7.8 | 0.00 | 0.00 | 0.00 | 68 | 1016.3 |
| 20260504205728 | 87 | 128 | 7.8 | 9.6 | 0.00 | 0.00 | 0.00 | 65 | 1016.2 |
| 20260504205226 | 87 | 151 | 3.5 | 6.1 | 0.00 | 0.00 | 0.00 | 64 | 1016.2 |
| 20260504204723 | 86 | 127 | 6.1 | 8.7 | 0.00 | 0.00 | 0.00 | 64 | 1016.2 |
| 20260504204222 | 87 | 124 | 7.0 | 8.7 | 0.00 | 0.00 | 0.00 | 64 | 1016.4 |
| 20260504203721 | 87 | 131 | 4.3 | 11.3 | 0.00 | 0.00 | 0.00 | 64 | 1016.1 |
| 20260504203218 | 87 | 132 | 3.5 | 8.7 | 0.00 | 0.00 | 0.00 | 63 | 1016.2 |
| 20260504202717 | 87 | 166 | 5.2 | 7.0 | 0.00 | 0.00 | 0.00 | 62 | 1016.1 |
| 20260504202215 | 87 | 143 | 4.3 | 7.0 | 0.00 | 0.00 | 0.00 | 63 | 1016.1 |
| 20260504201711 | 87 | 130 | 5.2 | 7.8 | 0.00 | 0.00 | 0.00 | 63 | 1016.2 |
| 20260504201209 | 87 | 159 | 3.5 | 8.7 | 0.00 | 0.00 | 0.00 | 64 | 1016.4 |
| 20260504200706 | 86 | 131 | 5.2 | 7.8 | 0.00 | 0.00 | 0.00 | 67 | 1016.3 |
| 20260504200202 | 85 | 123 | 6.1 | 11.3 | 0.00 | 0.00 | 0.00 | 68 | 1016.4 |
| 20260504195659 | 86 | 75 | 7.8 | 11.3 | 0.00 | 0.00 | 0.00 | 70 | 1016.5 |
| 20260504195155 | 87 | 116 | 5.2 | 7.0 | 0.00 | 0.00 | 0.00 | 69 | 1016.3 |
| 20260504194652 | 87 | 98 | 7.8 | 9.6 | 0.00 | 0.00 | 0.00 | 65 | 1016.5 |
| 20260504194148 | 86 | 155 | 7.8 | 8.7 | 0.00 | 0.00 | 0.00 | 66 | 1016.4 |
| 20260504193644 | 86 | 69 | 5.2 | 9.6 | 0.00 | 0.00 | 0.00 | 67 | 1016.6 |
| 20260504193142 | 86 | 182 | 4.3 | 7.8 | 0.00 | 0.00 | 0.00 | 65 | 1016.6 |
| 20260504192640 | 86 | 94 | 5.2 | 7.0 | 0.00 | 0.00 | 0.00 | 67 | 1016.5 |
| 20260504192138 | 87 | 112 | 6.1 | 9.6 | 0.00 | 0.00 | 0.00 | 66 | 1016.5 |
| 20260504191636 | 89 | 114 | 5.2 | 12.2 | 0.00 | 0.00 | 0.00 | 63 | 1016.5 |
| 20260504191132 | 88 | 134 | 5.2 | 9.6 | 0.00 | 0.00 | 0.00 | 63 | 1016.5 |
| 20260504190628 | 87 | 155 | 1.7 | 7.8 | 0.00 | 0.00 | 0.00 | 64 | 1016.5 |
| 20260504190125 | 87 | 92 | 6.1 | 9.6 | 0.00 | 0.00 | 0.00 | 65 | 1016.6 |
| 20260504185621 | 86 | 137 | 2.6 | 6.1 | 0.00 | 0.00 | 0.00 | 66 | 1016.8 |
| 20260504185118 | 87 | 141 | 6.1 | 8.7 | 0.00 | 0.00 | 0.00 | 66 | 1016.8 |
| 20260504184614 | 88 | 77 | 5.2 | 11.3 | 0.00 | 0.00 | 0.00 | 64 | 1016.9 |
| 20260504184109 | 88 | 107 | 5.2 | 8.7 | 0.00 | 0.00 | 0.00 | 63 | 1016.9 |
| 20260504183607 | 88 | 128 | 7.0 | 12.2 | 0.00 | 0.00 | 0.00 | 61 | 1016.9 |
| 20260504183104 | 87 | 82 | 4.3 | 7.8 | 0.00 | 0.00 | 0.00 | 63 | 1017.0 |
| 20260504182601 | 88 | 140 | 8.7 | 9.6 | 0.00 | 0.00 | 0.00 | 62 | 1017.1 |
| 20260504182059 | 88 | 99 | 3.5 | 8.7 | 0.00 | 0.00 | 0.00 | 62 | 1016.9 |
| 20260504181556 | 87 | 105 | 8.7 | 9.6 | 0.00 | 0.00 | 0.00 | 62 | 1016.8 |
| 20260504181054 | 87 | 144 | 5.2 | 11.3 | 0.00 | 0.00 | 0.00 | 62 | 1017.1 |
| 20260504180552 | 87 | 135 | 6.1 | 9.6 | 0.00 | 0.00 | 0.00 | 63 | 1017.1 |
| 20260504180051 | 89 | 97 | 8.7 | 13.9 | 0.00 | 0.00 | 0.00 | 59 | 1017.2 |
| 20260504175548 | 89 | 103 | 7.8 | 11.3 | 0.00 | 0.00 | 0.00 | 59 | 1017.1 |
| 20260504175044 | 89 | 141 | 5.2 | 9.6 | 0.00 | 0.00 | 0.00 | 59 | 1017.1 |
| 20260504174543 | 90 | 96 | 5.2 | 12.2 | 0.00 | 0.00 | 0.00 | 59 | 1017.3 |
| 20260504174039 | 90 | 142 | 3.5 | 7.8 | 0.00 | 0.00 | 0.00 | 56 | 1017.3 |
| 20260504173536 | 90 | 85 | 7.0 | 9.6 | 0.00 | 0.00 | 0.00 | 56 | 1017.3 |
| 20260504173033 | 90 | 130 | 5.2 | 7.8 | 0.00 | 0.00 | 0.00 | 56 | 1017.4 |
| 20260504172529 | 88 | 174 | 3.5 | 7.8 | 0.00 | 0.00 | 0.00 | 59 | 1017.5 |
| 20260504172026 | 88 | 195 | 4.3 | 7.0 | 0.00 | 0.00 | 0.00 | 60 | 1017.6 |
| 20260504171523 | 90 | 76 | 5.2 | 7.8 | 0.00 | 0.00 | 0.00 | 58 | 1017.7 |
| 20260504171020 | 89 | 149 | 3.5 | 6.1 | 0.00 | 0.00 | 0.00 | 56 | 1017.8 |
| 20260504170516 | 89 | 240 | 5.2 | 7.8 | 0.00 | 0.00 | 0.00 | 59 | 1017.9 |
| 20260504160436 | 89 | 111 | 2.6 | 7.8 | 0.00 | 0.00 | 0.00 | 55 | 1018.3 |
| 20260504150900 | 89 | 142 | 4.3 | 7.0 | 0.00 | 0.00 | 0.00 | 52 | 1018.5 |
| 20260504150356 | 88 | 122 | 6.1 | 7.8 | 0.00 | 0.00 | 0.00 | 54 | 1018.7 |
| 20260504141326 | 87 | 60 | 3.5 | 8.7 | 0.00 | 0.00 | 0.00 | 61 | 1018.6 |
| 20260504140823 | 86 | 97 | 7.0 | 9.6 | 0.00 | 0.00 | 0.00 | 61 | 1018.6 |
| 20260504140319 | 87 | 136 | 5.2 | 7.8 | 0.00 | 0.00 | 0.00 | 63 | 1018.7 |
| 20260504130748 | 83 | 140 | 5.2 | 6.1 | 0.00 | 0.00 | 0.00 | 74 | 1018.8 |
| 20260504130243 | 83 | 76 | 5.2 | 7.0 | 0.00 | 0.00 | 0.00 | 73 | 1018.9 |
| 20260504120207 | 82 | 86 | 1.7 | 3.5 | 0.00 | 0.00 | 0.00 | 77 | 1018.9 |